This demonstration page uses our WeatherBlox Daily Observations layout. Learn more.

Left ArrowRight Arrow

Hourly Observations for February 1, 2016

Temp ( °F °C ) Dew Point ( °F °C ) Humidity (%) Winds ( mph kmh ) Pressure ( in mb ) Visibility ( mi km ) Precip ( " mm )
12:54 am 00:54 Clear 30 -1.1 25 -3.9 82 82 Calm 30.00 1016 10 16 0.00 0.00
1:54 am 01:54 Clear 29 -1.7 25 -3.9 85 85 Calm 29.99 1016 10 16 0.00 0.00
2:54 am 02:54 Clear 24 -4.4 22 -5.6 91 91 NNE 3 6 29.99 1016 10 16 0.00 0.00
3:54 am 03:54 Clear 24 -4.4 22 -5.6 91 91 Calm 30.00 1016 10 16 0.00 0.00
4:54 am 04:54 Clear 23 -5 20 -6.7 88 88 Calm 30.00 1016 10 16 0.00 0.00
5:54 am 05:54 Clear 24 -4.4 21 -6.1 88 88 Calm 30.02 1017 10 16 0.00 0.00
6:54 am 06:54 Clear 22 -5.6 19 -7.2 89 89 Calm 30.03 1017 10 16 0.00 0.00
7:54 am 07:54 Mostly Cloudy 26 -3.3 23 -5 88 88 Calm 30.04 1017 10 16 0.00 0.00
8:54 am 08:54 Mostly Cloudy 29 -1.7 25 -3.9 85 85 Calm 30.05 1018 10 16 0.00 0.00
9:54 am 09:54 Cloudy 32 0 26 -3.3 79 79 Calm 30.08 1019 10 16 0.00 0.00
10:54 am 10:54 Cloudy 35 1.7 26 -3.3 70 70 Calm 30.07 1018 10 16 0.00 0.00
11:54 am 11:54 Mostly Cloudy 41 5 28 -2.2 60 60 ENE 6 9 30.05 1018 10 16 0.00 0.00
12:54 pm 12:54 Cloudy 40 4.4 28 -2.2 63 63 NE 6 9 30.04 1017 10 16 0.00 0.00
1:54 pm 13:54 Cloudy 40 4.4 29 -1.7 65 65 NE 7 11 30.01 1016 10 16 0.00 0.00
2:54 pm 14:54 Cloudy 40 4.4 30 -1.1 68 68 NNE 6 9 29.99 1016 10 16 0.00 0.00
3:54 pm 15:54 Cloudy 39 3.9 31 -0.6 73 73 NNE 8 13 29.98 1015 10 16 0.00 0.00
4:54 pm 16:54 Cloudy 38 3.3 31 -0.6 76 76 ENE 7 11 29.97 1015 10 16 0.00 0.00
5:54 pm 17:54 Clear 45 7 28 -2 53 53 W 5 7 29.91 1013 10 16 0.00 0.00
6:54 pm 18:54 Cloudy 37 2.8 31 -0.6 79 79 NE 14 22 29.96 1015 10 16 0.00 0.00
7:54 pm 19:54 Cloudy 36 2.2 30 -1.1 79 79 NE 15 24 29.93 1014 10 16 0.00 0.00
8:54 pm 20:54 Cloudy 36 2.2 31 -0.6 82 82 NE 10 17 29.96 1015 10 16 0.00 0.00
9:54 pm 21:54 Cloudy 36 2.2 31 -0.6 82 82 ENE 12 19 29.95 1014 10 16 0.00 0.00
10:54 pm 22:54 Cloudy 36 2.2 33 0.6 89 89 ENE 12 19 29.96 1014 10 16 0.00 0.03
11:54 pm 23:54 Mostly Cloudy with Light Rain 35 1.7 32 0 89 89 NNE 21 33 29.83 1010 10 16 0.01 0.25

Powered by AerisWeather